Dewpoint
64 66 69 60 53 34 32 35 39 39 39 42 42 42 47 55 53 50 59 63 66 68 71 72 77 76 76 77 77 76 76 75 75 75 74 74 74 73 73 73 73 72 73 72 72 72 72 72 71
61 63 58 57 43 31 32 35 36 41 41 37 43 47 49 51 54 57 59 63 65 68 69 72 77 77 77 77 77 76 75 75 75 75 74 74 74 73 73 72 72 73 72 72 72 72 72 71 71
65 64 55 47 35 33 34 38 38 39 41 41 46 49 51 52 55 58 60 63 65 67 69 74 77 76 76 77 77 76 76 75 75 74 74 74 74 73 73 73 72 72 72 72 72 72 72 71 72
57 53 52 36 33 34 36 38 38 39 42 44 48 48 53 56 59 59 61 63 64 66 71 75 76 76 76 76 76 76 76 76 75 74 74 74 73 73 73 73 73 72 72 72 72 72 72 72 72
50 54 44 34 33 34 38 40 37 38 42 45 50 50 54 58 61 60 60 60 66 70 71 72 75 75 75 75 75 75 75 75 74 74 73 73 73 73 73 72 72 72 71 71 71 72 72 72 71
49 54 48 32 32 36 38 39 38 39 42 43 51 52 55 59 59 60 61 61 69 68 67 71 75 75 75 74 74 74 74 74 73 73 73 73 73 73 73 72 72 72 71 71 67 71 71 71 71
48 46 44 28 29 33 36 40 37 39 40 42 51 53 56 58 60 61 61 63 68 68 69 71 72 73 74 74 74 73 73 73 73 73 74 73 73 73 72 73 72 72 71 71 71 71 71 71 69
46 48 36 30 28 29 35 34 37 40 43 46 49 53 54 58 60 62 62 62 66 67 69 70 72 72 72 73 74 74 73 73 73 73 73 73 74 73 73 71 72 72 71 70 71 71 71 72 71
37 41 32 26 28 29 30 35 36 42 45 47 48 54 58 59 60 61 64 63 68 67 68 69 71 72 73 73 74 74 73 73 73 72 72 72 71 71 71 69 72 71 71 71 70 71 71 72 72
44 42 37 26 27 28 28 29 35 49 50 50 52 57 58 59 59 60 62 62 64 66 67 68 70 71 72 71 75 73 73 73 73 72 73 72 70 70 70 70 71 71 71 71 71 71 72 72 71
43 39 36 23 26 27 28 31 31 45 51 56 53 56 57 59 59 59 60 62 65 66 69 69 70 72 72 71 74 72 72 72 72 71 73 72 70 71 68 71 71 71 71 70 72 71 70 70 67
33 27 25 23 24 26 26 28 31 33 46 48 56 57 57 58 58 58 58 60 65 67 67 70 71 72 72 72 72 73 72 72 71 71 73 73 71 70 70 70 70 70 70 69 70 70 69 69 69
29 25 25 25 25 27 28 28 29 32 44 48 56 57 56 57 59 58 58 59 61 67 67 69 71 71 72 71 71 71 70 71 70 72 73 72 71 70 70 70 69 69 69 70 69 70 69 70 69
28 27 27 27 26 28 29 33 30 36 41 46 53 56 56 56 57 58 57 58 61 62 63 67 69 71 71 70 70 70 71 71 71 71 72 72 70 71 71 69 67 68 70 70 70 67 69 69 69
26 23 26 27 25 23 32 37 36 43 42 48 52 55 56 56 56 57 58 59 61 63 64 67 69 71 71 70 70 71 70 69 70 69 71 72 72 71 71 70 68 66 68 69 66 66 60 64 69
20 22 21 22 25 25 29 40 45 38 43 48 51 53 55 56 57 58 60 61 61 63 65 67 66 70 72 71 71 70 68 68 66 68 69 71 70 71 71 71 69 69 66 64 69 66 62 66 67
15 16 16 23 24 23 21 31 35 33 43 49 51 53 55 56 57 60 60 61 62 65 67 68 69 69 69 70 69 70 70 69 68 67 69 70 71 70 70 70 70 68 67 65 66 69 68 67 67
9 7 6 14 19 23 18 20 32 36 38 50 52 54 56 58 58 60 61 61 63 66 69 69 69 67 67 66 65 66 70 68 70 69 69 70 70 69 70 70 70 70 68 69 69 68 67 66 67
13 14 12 11 15 22 18 21 21 35 36 44 53 56 57 59 60 61 62 62 63 65 68 71 68 68 60 61 65 66 67 68 69 68 68 71 71 70 71 71 71 70 70 70 69 67 65 66 69
9 6 6 10 14 22 20 18 20 25 32 36 46 56 57 58 59 61 63 63 64 65 71 70 69 65 65 65 68 65 68 69 69 70 69 71 71 71 70 70 70 68 68 69 70 66 65 65 67
6 6 7 12 19 22 19 17 19 21 31 32 34 54 57 56 58 61 62 63 63 65 67 70 71 69 69 69 69 69 68 69 68 68 68 69 68 68 68 68 68 69 70 69 69 67 66 65 65
8 15 10 10 13 11 17 14 20 23 30 31 35 39 53 55 60 62 61 61 63 65 70 71 71 71 73 71 69 67 67 64 65 66 68 67 67 68 68 68 68 69 69 69 70 68 67 67 64
10 22 20 14 15 16 13 11 24 23 22 30 37 40 44 55 59 61 61 62 63 64 67 69 70 71 71 71 69 70 67 66 67 66 66 67 67 68 67 68 69 69 69 69 69 68 69 67 66
14 19 17 16 15 13 13 12 16 28 30 25 35 38 43 54 57 59 60 63 64 64 66 67 70 70 71 71 69 68 68 67 67 67 65 63 65 68 69 69 69 69 69 69 69 70 68 67 67
16 16 15 15 16 21 30 21 18 17 23 27 32 39 43 53 57 58 60 60 62 63 63 66 70 70 70 69 68 68 67 66 67 66 65 66 65 66 69 69 69 70 69 69 69 68 68 67 67
18 17 15 13 13 23 28 24 25 21 24 32 36 36 43 51 56 57 60 61 62 63 63 66 70 69 69 68 68 68 67 66 66 67 67 66 66 67 68 68 69 69 68 68 69 68 68 66 67
17 19 19 15 14 11 14 24 28 33 26 32 39 40 46 50 54 56 58 60 61 62 63 65 70 70 68 68 68 67 67 67 67 66 67 66 67 66 67 68 69 68 69 68 68 68 68 67 67
16 15 16 18 13 11 10 29 32 36 38 38 39 41 49 51 52 55 57 61 60 61 63 63 70 69 68 67 67 67 67 67 67 66 67 67 66 67 68 68 68 68 68 69 68 68 68 67 67
16 17 14 14 17 15 16 26 40 35 31 43 43 46 50 50 51 53 58 60 59 61 62 68 68 68 67 66 66 66 66 67 66 65 67 67 66 67 67 67 67 67 66 67 68 67 67 67 67
15 19 19 15 17 18 17 26 35 38 33 30 41 48 50 52 52 55 59 59 60 60 62 67 67 65 65 65 66 65 68 66 65 64 65 66 65 66 66 66 66 66 66 66 65 65 65 65 65
Wind_Speed
20 17 17 16 7 15 21 20 20 22 16 14 11 18 25 15 9 16 16 29 28 25 21 18 17 16 16 16 16 16 16 16 15 15 14 12 11 11 11 11 9 9 9 6 5 6 7 8 7
15 20 12 9 1 20 19 19 18 14 7 20 24 24 25 22 20 23 17 28 27 24 22 19 17 17 16 17 17 17 17 16 15 15 14 12 11 11 11 9 8 8 9 7 6 5 8 8 8
16 17 10 6 19 19 18 16 15 13 15 19 24 23 23 17 20 20 18 30 26 23 23 20 18 17 16 16 17 16 16 16 15 13 13 12 11 10 9 8 7 6 8 5 5 7 7 8 8
8 12 10 12 20 20 19 13 18 18 14 17 19 15 18 15 25 24 18 27 23 25 22 18 17 16 16 15 15 14 14 14 13 12 11 10 10 9 8 8 6 5 4 4 5 5 6 7 8
11 13 11 18 23 19 19 7 23 16 15 21 20 19 19 19 23 22 18 17 26 25 23 18 16 15 15 15 14 13 13 12 11 11 10 9 9 8 6 7 6 6 5 5 5 5 5 6 8
15 4 11 14 19 16 16 9 18 15 11 15 22 19 17 18 20 18 17 14 25 25 22 18 14 14 13 13 13 13 11 11 10 9 9 8 8 8 6 7 7 6 6 5 5 3 7 8 12
21 17 10 18 17 13 6 17 17 11 17 9 23 20 13 20 18 17 14 15 25 23 21 18 14 12 12 11 10 13 12 10 9 8 8 8 9 9 7 6 7 7 7 7 7 5 7 10 15
11 16 3 10 18 12 6 13 5 17 15 8 11 11 20 19 19 19 13 10 21 23 22 19 16 14 12 13 11 11 12 11 10 8 8 9 8 11 11 10 8 7 6 6 8 8 7 10 15
18 12 6 11 17 14 9 13 10 14 10 12 12 22 25 22 20 20 12 10 17 15 17 20 19 17 15 13 13 12 12 11 11 11 11 10 11 14 14 12 16 11 9 8 8 9 10 10 14
27 9 9 14 11 7 11 5 6 18 23 9 20 22 23 22 20 20 15 12 9 12 13 17 17 17 16 15 16 13 13 13 13 14 14 12 10 13 12 16 17 15 12 11 10 9 12 13 11
18 10 12 13 8 7 13 9 1 26 18 33 18 21 22 20 19 17 19 20 19 15 14 10 16 16 13 13 15 11 11 10 11 11 12 10 7 12 12 14 12 12 13 11 11 10 10 13 11
6 4 8 9 4 4 10 11 10 7 17 18 21 21 22 19 17 17 16 17 25 22 18 18 15 16 15 11 12 12 12 13 10 10 10 6 6 6 6 2 11 6 9 6 10 11 14 14 14
10 4 1 2 1 3 5 9 4 7 18 17 20 20 19 18 17 15 15 15 14 22 20 20 18 16 14 12 13 15 13 14 14 15 14 11 9 7 5 3 7 3 2 3 10 2 7 9 16
10 4 10 7 6 6 1 17 7 10 12 14 18 20 19 18 17 16 13 14 17 16 12 15 16 12 11 12 8 9 10 10 7 12 15 14 10 10 6 5 5 5 5 5 6 10 2 22 18
6 10 14 15 5 6 10 17 17 10 13 12 15 18 18 16 17 15 15 12 12 16 16 15 13 11 7 5 9 12 8 10 13 14 11 16 14 9 11 10 8 6 8 6 4 9 10 12 13
12 14 17 16 5 3 6 23 47 11 15 11 14 15 18 16 15 16 14 13 9 15 14 14 15 17 16 11 10 10 12 9 11 4 8 12 10 9 10 10 10 13 13 12 10 10 10 11 13
16 15 15 10 8 8 5 10 10 5 14 13 9 11 17 15 14 13 16 15 15 11 15 13 7 24 18 8 6 12 13 6 2 5 4 12 11 10 13 11 11 10 11 13 14 16 18 14 7
11 13 9 1 3 8 8 9 12 9 8 17 13 11 12 14 14 12 11 13 13 13 15 13 23 24 20 20 28 20 7 5 1 9 9 7 8 9 11 12 12 13 9 11 12 15 11 11 19
11 13 13 6 2 2 12 7 7 12 7 14 17 14 13 14 14 14 10 7 8 9 14 10 13 16 19 11 21 14 14 9 9 9 5 2 4 8 8 10 13 13 12 15 15 16 9 16 21
11 10 11 11 4 4 12 13 9 6 9 6 16 20 16 15 15 14 10 7 4 6 11 11 20 19 19 17 9 15 22 6 6 6 5 5 6 8 9 10 14 15 16 13 14 18 12 7 6
13 12 13 8 4 9 15 17 21 16 13 9 5 22 19 18 18 14 12 8 5 8 5 8 15 20 19 18 14 19 10 3 4 4 5 3 3 6 7 10 10 9 10 15 14 15 11 11 11
14 13 6 11 10 16 6 16 8 15 13 15 11 8 20 15 20 17 13 10 8 8 10 5 9 13 15 15 11 9 4 4 3 1 6 4 7 6 6 9 12 9 9 11 13 13 12 10 13
12 6 7 10 14 16 18 11 13 10 1 18 16 12 8 19 19 18 14 12 10 10 9 9 5 5 6 6 3 2 4 3 9 7 5 6 5 1 8 6 8 9 10 11 12 11 11 14 10
10 6 11 13 17 19 20 14 8 11 17 1 13 7 11 18 17 16 14 12 11 13 11 11 9 6 4 4 5 6 8 8 10 7 6 9 9 9 12 12 10 9 8 10 11 9 11 14 12
10 11 12 13 19 4 22 16 10 9 14 9 8 13 9 19 18 15 18 14 12 12 11 12 10 9 6 6 4 6 5 2 4 7 8 10 11 11 12 14 12 11 7 6 8 10 11 12 13
12 15 15 19 21 4 15 9 37 9 11 15 7 4 14 18 18 18 18 14 13 14 14 13 12 11 7 7 6 4 2 2 11 8 9 11 11 12 14 14 13 13 7 2 2 5 7 10 12
13 16 17 16 22 22 15 9 15 21 6 15 14 11 15 17 18 18 17 17 15 14 15 14 16 13 8 8 7 5 5 9 7 5 8 11 13 10 10 12 14 14 11 8 7 4 7 4 8
13 17 10 14 18 20 18 9 5 9 21 16 12 12 15 16 18 19 18 18 16 15 13 12 18 14 11 9 8 7 6 8 7 5 11 14 9 10 11 13 16 16 16 12 8 8 11 7 5
13 14 15 18 20 19 19 2 19 24 11 15 14 14 15 15 16 16 15 16 18 18 15 16 16 14 12 11 9 7 8 9 5 6 13 13 8 10 12 14 17 18 18 18 15 14 15 15 12
16 12 11 16 14 18 19 6 11 17 24 8 20 16 14 15 17 16 16 16 16 15 16 18 17 16 14 10 8 7 14 9 5 10 12 10 9 9 10 14 16 14 15 16 17 18 19 18 17
Wind_Direction
297 277 244 284 239 75 69 61 49 60 58 68 52 56 66 66 93 119 129 112 115 125 127 123 113 106 110 117 121 124 127 130 128 125 129 130 124 121 115 123 122 121 110 105 102 117 142 142 130
308 306 272 281 135 82 74 68 64 55 34 72 39 50 67 69 93 109 108 115 119 129 135 125 114 111 109 117 126 128 130 132 132 130 133 132 128 127 126 123 122 116 109 110 105 102 136 129 136
278 267 290 279 72 86 91 94 87 76 47 73 75 56 74 87 113 109 127 112 120 140 126 126 119 119 120 119 123 126 129 133 134 135 135 134 133 131 137 135 120 126 105 114 119 122 127 129 136
297 297 242 87 91 86 86 56 104 98 86 61 85 78 65 44 113 122 134 121 138 131 121 124 124 123 119 116 117 124 126 128 131 133 136 138 141 145 147 143 134 106 128 126 106 137 137 135 146
343 360 314 106 93 95 96 102 94 90 69 73 84 91 82 83 104 125 126 134 115 114 126 126 123 123 126 127 126 125 127 131 137 142 147 147 152 147 145 132 131 129 124 140 113 118 122 130 149
54 88 291 101 107 108 127 74 102 95 110 122 102 91 95 115 122 131 127 138 119 125 126 130 122 123 125 128 132 133 134 137 143 152 154 159 145 148 154 147 141 135 138 141 131 114 133 134 139
137 152 237 104 93 73 84 158 97 95 84 78 102 108 129 128 128 129 133 109 121 126 127 127 134 134 137 138 147 144 144 147 153 156 154 153 161 161 164 157 154 151 159 164 177 168 138 146 162
174 180 222 100 110 93 130 84 63 100 90 85 146 130 142 129 136 132 122 134 133 137 139 141 146 154 155 154 164 159 156 160 165 172 181 182 184 175 183 182 180 171 170 174 183 174 165 162 175
262 333 340 64 67 108 68 125 93 83 116 83 60 116 128 141 140 132 122 126 97 114 137 145 152 163 167 161 168 173 169 173 178 185 195 208 214 195 196 205 165 175 183 188 193 180 171 175 183
60 336 308 51 37 39 110 43 130 137 45 97 103 110 131 145 150 138 155 171 155 146 153 148 159 164 168 175 160 184 180 186 197 198 187 215 230 208 188 171 176 180 188 195 193 190 182 184 185
133 230 222 87 3 10 357 142 15 115 123 227 136 138 145 151 148 160 171 171 182 167 161 181 170 162 181 184 168 192 189 207 212 213 190 233 264 197 199 170 180 187 198 198 193 183 196 200 197
225 59 357 63 58 352 21 344 65 61 132 128 142 148 150 159 161 167 178 169 175 169 170 177 184 169 190 179 178 186 182 211 188 201 212 236 247 239 276 324 195 198 174 226 167 203 207 204 191
289 83 305 229 262 346 342 276 55 65 95 118 140 153 160 163 163 171 171 161 162 163 181 176 179 179 197 172 201 197 193 192 204 181 193 202 225 251 228 357 331 344 207 284 200 234 347 293 220
357 343 305 289 289 261 269 333 141 108 111 132 149 160 169 166 167 168 177 167 167 166 180 162 166 166 172 190 214 220 215 219 155 205 191 200 203 218 211 251 289 312 303 281 96 96 102 234 228
280 271 254 233 231 297 54 355 329 125 133 147 160 168 173 168 168 168 171 174 184 161 177 167 163 170 165 203 229 221 246 200 208 202 161 183 207 209 203 212 216 233 255 250 165 158 190 255 245
251 256 260 239 121 153 176 160 255 165 147 159 169 177 167 168 170 170 168 167 189 166 173 169 185 176 164 185 236 232 237 208 230 196 171 192 200 221 215 225 227 201 205 231 198 197 233 244 251
228 255 243 137 120 330 285 161 141 188 139 146 163 182 168 174 173 166 169 180 178 184 166 177 184 55 42 350 292 246 253 237 228 230 243 199 208 225 233 242 250 229 198 213 224 205 199 215 232
310 223 258 167 123 176 272 255 144 147 185 155 166 177 182 183 185 168 183 189 186 170 168 182 82 44 46 348 325 302 241 208 233 233 242 233 199 247 256 253 253 270 258 236 249 253 213 214 203
337 321 331 10 160 44 287 311 281 149 173 172 154 167 193 196 190 160 180 197 182 202 189 140 122 121 132 204 276 322 247 201 233 225 229 121 231 256 263 273 272 269 255 246 256 264 276 296 233
297 284 281 270 137 227 278 277 269 205 157 196 169 166 187 188 191 174 173 180 198 244 123 123 127 149 166 172 183 249 270 234 228 160 202 232 262 267 259 269 273 269 266 258 254 259 232 221 312
265 269 271 302 306 235 244 258 244 232 156 188 212 166 173 192 184 167 175 189 203 221 215 121 146 162 177 193 180 216 231 264 256 237 250 189 252 294 298 297 288 273 269 265 266 259 237 210 220
265 308 233 296 286 275 328 269 226 194 189 175 175 178 170 181 161 166 177 180 195 176 128 128 175 175 190 194 179 224 251 125 88 280 66 321 240 247 259 286 295 281 266 266 257 263 237 195 226
259 5 301 273 271 273 269 254 86 174 250 180 170 153 171 157 160 168 178 165 177 161 149 147 133 129 140 150 165 6 343 93 101 24 317 263 217 320 6 338 301 287 269 262 256 251 235 212 214
272 295 267 260 257 259 260 249 169 128 152 117 115 112 154 145 156 158 155 146 179 158 159 145 139 114 111 119 74 68 55 47 34 352 351 333 38 57 21 4 337 306 274 260 254 252 242 221 215
236 252 258 242 238 310 1 328 309 104 125 115 101 132 146 145 156 161 141 160 160 165 161 147 135 149 150 139 119 95 80 52 125 4 13 345 18 19 4 352 343 324 285 279 247 236 239 223 211
219 247 269 296 295 104 199 211 261 121 125 122 137 121 141 152 159 170 157 165 171 161 161 147 141 137 178 136 116 110 64 333 56 53 340 41 24 19 8 340 345 341 334 45 249 264 260 243 207
252 236 246 279 282 281 251 203 41 13 344 132 133 140 148 157 162 164 164 165 173 170 173 161 151 152 185 142 132 136 76 58 62 27 24 37 37 9 354 353 10 13 33 35 37 341 283 219 204
245 275 257 234 262 273 278 94 93 128 301 124 134 149 145 158 163 166 159 154 164 170 180 191 145 160 171 147 160 151 121 82 69 357 77 61 26 13 15 24 25 29 29 37 37 35 6 280 195
209 238 256 275 286 300 292 228 154 152 193 167 158 154 155 163 154 148 150 152 166 164 174 140 150 169 154 165 169 152 125 94 69 54 74 68 33 25 26 39 33 39 30 26 29 41 46 51 54
244 286 208 243 260 253 275 55 169 207 229 275 141 148 159 155 152 156 143 154 155 165 166 147 166 164 156 142 145 138 104 91 73 68 68 83 59 53 42 56 48 44 46 46 41 40 35 39 44